Temp
14 14 14 14 14 13 13 13 13 13 13 13 13 13 12 12 11 11 11 11 11 11 11 10 10 10 10 10 10 10 10 10 10 10 10 9 9 9 9 9 8 8 7 7 7 7 7 7 7 7 7 7 7 7 6 6 6 6 6 5 5 5 5 4 4 4 4 4 4
14 14 14 14 14 14 14 13 13 13 13 13 13 13 12 12 11 11 11 11 11 11 10 10 10 10 10 10 10 10 10 10 10 10 10 9 9 9 9 8 8 7 7 7 7 7 7 7 7 7 7 7 7 7 6 6 6 6 5 5 5 5 4 4 4 4 4 4 3
14 14 14 14 14 14 14 14 13 13 13 13 13 13 12 12 12 11 11 11 11 11 10 10 9 9 9 9 9 9 10 10 10 10 10 9 9 9 8 8 7 7 7 7 7 7 6 6 7 7 7 7 7 6 6 6 6 6 5 5 5 5 4 4 4 4 4 3 3
14 14 14 14 14 14 14 14 14 14 13 13 13 12 12 12 12 12 12 11 11 10 10 10 9 9 9 9 9 9 9 9 10 10 10 9 8 8 8 7 7 7 7 7 7 7 6 6 7 7 7 7 6 6 6 6 6 5 5 5 5 4 4 4 4 3 3 3 3
14 14 14 14 14 14 14 14 14 14 13 13 13 12 12 12 12 11 11 11 11 10 10 10 9 9 9 9 9 9 9 9 9 9 9 9 8 8 7 7 7 6 7 7 7 6 6 6 6 7 7 6 6 6 6 6 6 5 5 5 5 4 4 4 3 3 3 3 3
14 14 14 14 14 14 14 14 14 14 13 13 13 12 12 12 11 11 11 11 11 10 10 10 9 9 9 9 9 8 8 8 9 9 9 8 8 8 7 7 7 6 6 6 6 6 6 6 6 6 6 6 6 5 5 5 5 5 5 5 4 4 4 3 3 3 3 3 2
14 14 14 14 14 14 14 14 13 13 13 13 13 12 12 12 11 11 11 11 11 11 10 10 9 9 9 9 9 8 8 8 8 8 8 8 8 7 7 7 6 6 6 6 6 6 6 6 6 6 6 6 5 5 5 5 5 5 5 5 4 4 3 3 3 3 3 2 2
14 13 14 14 14 14 14 13 13 13 13 13 13 12 12 12 12 11 11 11 11 11 10 10 10 9 9 9 9 9 9 8 7 8 8 8 8 7 7 7 6 6 6 6 6 6 6 6 6 6 6 5 5 5 5 5 5 5 5 4 4 3 3 3 3 3 2 2 2
14 13 13 14 14 14 14 13 13 13 13 13 13 13 12 12 12 11 11 11 11 11 10 10 10 9 9 9 9 9 9 8 7 7 8 8 8 8 7 6 6 6 6 6 6 6 6 5 5 5 5 5 5 5 5 5 5 5 4 4 4 3 3 3 3 2 2 2 2
14 13 13 13 14 14 14 13 13 13 13 13 13 12 12 12 12 12 11 11 11 11 10 10 10 9 9 9 9 9 8 8 7 7 7 8 8 8 7 7 6 6 5 5 6 6 6 5 5 5 5 5 5 5 5 5 4 4 4 4 3 3 3 3 2 2 2 2 2
14 13 13 13 14 14 14 13 13 13 13 13 13 12 12 12 12 11 11 11 11 10 10 10 10 10 9 9 8 8 8 8 7 7 7 7 8 7 7 6 6 5 5 5 5 6 5 5 5 5 5 4 4 4 4 4 4 4 4 3 3 3 3 2 2 2 2 2 2
14 14 13 14 14 14 14 13 13 13 13 13 12 12 12 12 12 11 11 11 11 10 10 10 10 10 9 8 8 8 8 8 7 7 7 7 7 7 7 6 6 5 5 5 5 5 5 5 5 5 4 4 4 4 4 4 4 4 3 3 3 3 3 2 2 2 2 2 2
14 14 13 13 14 14 13 13 13 13 13 12 12 12 12 12 12 11 11 11 11 11 10 10 10 9 9 8 8 7 7 7 7 7 7 8 7 7 6 6 5 5 5 5 5 5 5 5 5 4 4 4 4 4 4 4 4 3 3 3 3 3 3 2 2 2 2 2 1
14 14 13 13 13 13 13 13 13 13 13 12 12 12 11 11 11 11 11 11 11 10 10 10 10 9 9 8 8 7 7 6 7 7 8 8 8 7 6 6 5 5 5 5 5 5 5 5 4 4 3 3 3 3 3 3 3 3 3 3 3 3 3 2 2 2 2 1 1
14 14 13 13 13 13 13 13 13 12 12 12 12 11 11 11 11 11 11 11 11 10 10 10 10 9 9 8 8 7 6 6 6 7 7 7 7 7 6 6 5 5 5 4 5 5 5 4 4 3 3 3 3 3 3 3 3 3 3 3 3 3 3 2 2 2 2 1 1
14 14 13 13 13 13 13 13 12 12 12 12 12 12 11 11 11 11 11 10 10 10 10 10 10 9 9 8 7 7 6 6 6 6 6 6 6 6 6 5 5 5 5 5 5 5 5 5 4 3 3 3 3 3 2 3 3 3 3 3 3 3 3 2 2 2 2 1 1
14 14 13 13 13 13 13 12 12 12 12 12 12 12 11 11 11 10 10 10 10 10 10 10 10 9 9 8 7 7 6 6 6 6 6 6 6 6 6 6 6 6 6 6 6 5 5 5 4 3 3 3 3 3 2 2 3 3 3 3 3 3 3 2 2 2 2 1 1
14 14 13 13 12 12 12 12 12 12 12 12 12 12 11 11 11 10 10 10 10 10 10 10 9 9 9 8 8 7 6 6 6 6 6 6 6 6 6 7 7 7 7 6 6 5 5 4 4 3 3 3 3 3 2 2 2 2 3 3 3 3 2 2 2 2 2 1 1
15 14 13 13 13 12 12 12 12 12 11 11 11 11 11 11 10 10 10 10 10 10 10 9 9 9 9 8 8 7 6 6 6 6 6 6 6 6 7 7 7 7 6 6 5 5 4 4 3 3 3 3 3 2 2 2 2 2 2 2 2 2 2 2 2 2 2 1 1
15 14 14 13 13 12 12 12 12 12 11 11 11 11 11 10 10 10 10 10 10 10 10 9 9 9 8 8 8 7 6 6 6 6 6 6 6 6 6 7 6 6 6 5 4 4 3 3 3 3 3 3 3 2 2 2 2 2 2 2 2 2 2 2 2 2 2 1 1
15 14 14 13 13 13 12 12 12 11 11 11 10 10 10 10 10 10 10 10 10 10 9 9 9 8 8 8 7 7 6 6 6 6 6 6 6 6 6 6 6 5 5 4 4 3 3 3 3 3 3 3 3 3 2 2 2 2 2 2 2 2 2 2 2 1 1 1 1
15 14 14 14 13 13 12 12 12 11 11 11 10 10 10 10 9 10 10 10 10 10 9 9 8 8 8 8 7 7 6 6 6 5 5 5 5 5 6 5 5 5 4 4 3 3 3 3 3 3 3 3 3 3 3 3 2 2 2 2 2 2 2 2 1 1 1 1 1
15 15 14 14 14 13 13 12 12 11 11 11 10 10 10 9 9 9 9 9 9 9 9 8 8 8 8 7 7 7 6 6 5 5 5 5 5 5 5 5 4 4 4 4 3 3 3 3 3 3 2 2 2 2 3 2 2 2 2 2 2 2 2 2 1 1 1 1 1
15 15 14 14 14 13 13 12 12 11 11 11 10 10 10 9 9 9 9 9 9 9 9 8 8 8 7 7 7 6 6 6 5 5 5 5 5 4 4 4 4 4 4 4 4 3 3 3 3 3 2 2 2 2 2 2 2 2 2 2 2 2 2 2 2 1 1 1 1
15 15 15 14 14 14 13 13 12 12 11 11 10 10 10 10 9 9 9 9 9 9 9 8 8 7 7 7 6 6 6 5 5 5 5 5 4 4 4 3 3 3 3 4 4 4 4 3 3 3 2 2 2 2 2 2 2 2 2 2 2 2 2 2 2 2 1 1 1
15 15 15 15 14 14 13 13 12 12 11 11 10 10 10 10 9 9 9 9 9 9 8 8 8 7 7 6 6 5 5 5 5 5 5 4 4 4 3 3 3 3 4 4 4 4 4 3 3 3 2 2 2 2 2 2 2 2 2 2 2 2 2 2 2 1 1 1 1
15 15 15 15 14 14 14 13 13 12 11 11 11 10 10 9 9 9 9 9 9 8 8 8 7 7 6 6 6 5 5 5 5 5 4 4 4 3 3 3 3 4 4 4 4 4 4 4 3 3 2 2 2 2 2 2 2 2 2 2 2 2 2 1 1 1 1 1 1
15 15 15 15 14 14 14 13 12 12 11 11 11 10 10 9 9 9 9 9 8 8 8 7 7 7 6 6 6 5 5 5 5 5 4 4 3 3 3 3 3 4 4 4 4 4 4 4 3 3 2 2 2 2 2 2 2 2 2 2 2 2 1 1 1 1 1 1 1
15 14 14 14 14 14 13 13 12 12 11 11 11 10 10 9 9 9 9 8 8 8 8 7 7 6 6 6 6 5 5 5 5 5 4 4 3 3 3 3 4 4 4 4 4 4 4 4 3 3 3 3 3 2 2 2 2 2 2 2 2 1 1 1 1 1 1 1 1
14 14 14 14 13 13 13 12 12 11 11 11 10 10 9 9 9 8 8 8 8 8 7 7 7 6 6 6 5 5 5 5 5 4 4 4 3 3 3 3 4 4 4 4 4 4 4 4 3 3 3 3 3 2 2 2 2 2 2 2 2 1 1 1 1 1 1 1 1
13 13 13 13 13 13 12 12 11 11 11 10 10 10 9 9 8 8 8 8 8 7 7 7 6 6 6 6 5 5 5 5 4 4 4 4 3 3 3 3 4 4 4 4 4 4 4 4 3 3 3 3 2 2 2 2 2 2 2 2 1 1 1 1 1 1 1 1 1
13 13 12 12 12 12 12 11 11 10 10 10 10 9 9 9 8 8 8 8 7 7 7 6 6 6 5 5 5 5 5 4 4 4 4 4 3 3 3 3 4 4 4 4 4 5 4 4 3 3 3 3 2 2 2 2 2 2 2 1 1 1 1 1 1 1 1 1 1
12 12 12 12 12 11 11 11 10 10 10 10 9 9 9 8 8 8 7 7 7 6 6 6 5 5 5 5 5 5 5 4 4 4 4 4 3 3 3 3 4 4 4 4 4 4 4 4 3 3 3 2 2 2 2 2 2 1 1 1 1 1 1 1 1 1 1 1 1
12 12 11 11 11 11 11 10 10 10 9 9 9 9 9 8 8 8 7 7 6 6 6 6 5 5 5 5 5 5 5 4 4 4 3 3 3 3 3 3 4 4 4 4 4 4 4 4 3 3 3 2 2 2 2 2 1 1 1 1 1 1 1 1 1 1 1 1 1
11 11 11 11 11 10 10 10 10 9 9 9 9 9 8 8 8 8 7 7 6 6 6 5 5 5 5 5 5 5 5 4 4 3 3 3 3 3 3 3 4 4 4 4 4 4 4 3 3 3 3 2 2 2 2 1 1 1 1 1 1 1 1 1 1 1 1 1 1
12 12 11 11 10 10 10 9 9 9 9 9 9 8 8 8 8 7 7 7 6 6 6 5 5 5 5 5 4 4 4 4 4 3 3 3 3 3 3 4 4 4 4 3 3 3 3 3 3 3 2 2 2 2 2 1 1 1 1 1 1 1 1 1 1 1 1 0 0
12 12 11 11 10 10 9 9 9 9 8 8 8 8 8 8 7 7 7 6 6 6 6 5 5 5 4 4 4 4 4 4 4 3 3 3 3 3 3 4 4 4 4 3 3 3 3 3 3 3 2 2 2 2 2 1 1 1 1 1 1 1 1 0 0 0 0 0 0
12 11 11 10 10 9 9 9 9 8 8 8 8 8 7 7 7 7 7 6 6 6 5 5 5 5 4 4 4 4 4 4 4 3 3 3 3 3 3 4 4 4 3 3 3 3 3 3 3 3 2 2 2 2 2 1 1 1 1 1 1 0 0 0 0 0 0 0 0
12 11 10 10 9 9 9 9 8 8 8 8 8 7 7 7 7 7 6 6 6 6 5 5 5 5 4 4 4 4 4 4 4 3 3 3 3 3 3 4 4 4 3 3 3 3 3 3 3 2 2 2 2 2 2 1 1 1 1 0 0 0 0 0 0 0 0 0 -0
10 10 10 9 9 9 9 8 8 8 8 7 7 7 7 7 6 6 6 6 6 5 5 5 5 5 4 4 4 4 4 4 4 3 3 3 3 3 3 4 4 3 3 3 3 3 3 3 3 2 2 2 2 2 2 1 1 1 0 0 0 0 0 -0 -0 -0 -0 -0 -0
10 10 9 9 9 9 8 8 8 8 7 7 7 7 6 6 6 6 6 6 5 5 5 5 5 5 4 4 4 4 4 4 4 3 3 3 3 3 3 3 3 3 3 3 3 3 3 3 3 2 2 2 2 2 2 1 1 1 0 0 0 0 0 -0 -0 -0 -0 -0 -0
Height
1508 1508 1509 1510 1512 1512 1513 1513 1514 1515 1516 1517 1517 1518 1519 1520 1521 1521 1522 1523 1523 1524 1525 1526 1527 1528 1529 1530 1531 1532 1533 1534 1535 1535 1536 1537 1537 1537 1537 1538 1538 1538 1538 1538 1538 1539 1540 1540 1540 1541 1541 1541 1542 1543 1543 1543 1543 1543 1543 1543 1543 1544 1544 1544 1544 1544 1544 1544 1543
1506 1506 1507 1508 1509 1510 1511 1512 1513 1513 1514 1515 1515 1516 1517 1518 1519 1520 1520 1521 1522 1523 1523 1525 1526 1527 1528 1529 1530 1531 1532 1532 1533 1534 1534 1535 1535 1536 1536 1537 1536 1536 1536 1537 1537 1538 1538 1539 1539 1539 1539 1540 1541 1541 1542 1542 1542 1542 1542 1543 1543 1543 1543 1543 1543 1543 1543 1543 1543
1504 1504 1505 1506 1507 1508 1508 1509 1510 1511 1512 1513 1514 1515 1515 1516 1517 1518 1519 1520 1521 1521 1522 1523 1524 1525 1526 1527 1528 1529 1530 1530 1531 1532 1533 1533 1534 1534 1535 1535 1535 1535 1535 1536 1536 1537 1537 1538 1538 1538 1538 1538 1539 1540 1540 1541 1541 1541 1541 1541 1541 1541 1541 1541 1541 1541 1541 1541 1541
1502 1502 1503 1503 1504 1505 1506 1507 1508 1509 1510 1511 1512 1513 1514 1514 1515 1516 1517 1518 1518 1519 1520 1521 1523 1524 1525 1526 1526 1527 1528 1529 1529 1530 1531 1532 1532 1533 1533 1534 1534 1534 1534 1535 1535 1536 1536 1536 1536 1536 1537 1537 1538 1538 1539 1539 1540 1540 1540 1540 1540 1540 1540 1540 1540 1540 1540 1540 1540
1500 1500 1500 1501 1502 1503 1503 1504 1506 1507 1508 1509 1510 1511 1512 1513 1513 1514 1514 1515 1516 1517 1518 1519 1521 1522 1523 1524 1525 1526 1527 1528 1528 1529 1530 1530 1530 1531 1532 1532 1533 1533 1533 1533 1534 1535 1535 1535 1535 1535 1535 1536 1536 1537 1537 1538 1538 1538 1539 1539 1539 1539 1539 1539 1539 1539 1539 1539 1539
1498 1498 1498 1499 1500 1501 1502 1503 1504 1505 1506 1508 1508 1509 1510 1511 1512 1512 1513 1513 1513 1514 1516 1517 1519 1520 1521 1521 1523 1524 1526 1527 1528 1528 1529 1529 1529 1529 1530 1531 1531 1532 1532 1533 1533 1534 1534 1534 1534 1534 1534 1534 1535 1535 1536 1536 1536 1537 1537 1538 1538 1538 1538 1538 1538 1538 1538 1538 1538
1496 1496 1496 1497 1498 1499 1500 1501 1503 1504 1505 1506 1507 1508 1508 1509 1510 1510 1511 1511 1512 1513 1514 1515 1516 1517 1518 1519 1520 1522 1523 1524 1526 1527 1528 1528 1528 1528 1529 1529 1530 1531 1531 1532 1532 1533 1533 1533 1533 1533 1533 1533 1534 1534 1534 1534 1535 1535 1536 1536 1536 1537 1537 1537 1537 1537 1537 1537 1537
1494 1494 1494 1495 1496 1497 1498 1500 1501 1502 1503 1504 1505 1506 1507 1508 1508 1509 1509 1510 1511 1512 1512 1513 1513 1514 1515 1516 1518 1519 1520 1522 1523 1525 1525 1526 1526 1527 1528 1528 1529 1529 1530 1530 1531 1532 1532 1532 1532 1532 1532 1532 1533 1533 1533 1533 1533 1533 1534 1535 1535 1535 1536 1536 1536 1536 1536 1536 1536
1493 1493 1493 1493 1494 1496 1497 1498 1499 1500 1501 1502 1503 1504 1505 1506 1507 1507 1508 1508 1509 1510 1510 1511 1511 1512 1513 1514 1515 1516 1518 1519 1520 1522 1523 1523 1524 1525 1526 1526 1527 1528 1528 1529 1529 1530 1530 1531 1531 1531 1531 1531 1531 1532 1532 1532 1532 1533 1533 1533 1534 1534 1534 1535 1535 1535 1535 1535 1535
1491 1491 1491 1491 1492 1494 1495 1496 1497 1498 1499 1500 1502 1503 1503 1504 1505 1506 1506 1507 1508 1508 1508 1508 1509 1510 1511 1512 1512 1513 1515 1516 1518 1519 1521 1522 1523 1523 1524 1524 1525 1525 1526 1527 1528 1528 1529 1529 1529 1529 1529 1530 1530 1530 1531 1531 1531 1531 1532 1533 1533 1533 1533 1534 1534 1534 1534 1534 1534
1489 1489 1488 1489 1490 1492 1493 1494 1495 1496 1497 1498 1500 1501 1501 1502 1503 1504 1505 1505 1506 1506 1506 1506 1507 1508 1509 1510 1510 1511 1512 1514 1516 1518 1519 1520 1521 1522 1522 1522 1523 1523 1524 1525 1526 1527 1528 1528 1528 1528 1528 1528 1528 1529 1529 1529 1530 1530 1530 1531 1532 1532 1533 1533 1533 1533 1533 1533 1533
1487 1487 1487 1487 1488 1490 1491 1492 1493 1494 1495 1496 1497 1498 1499 1500 1501 1502 1503 1503 1504 1504 1504 1505 1506 1507 1508 1508 1509 1509 1510 1512 1514 1515 1517 1518 1519 1520 1520 1521 1521 1522 1523 1523 1524 1525 1526 1526 1527 1527 1526 1526 1527 1528 1528 1528 1528 1528 1529 1529 1530 1530 1531 1531 1531 1531 1532 1532 1532
1485 1485 1485 1485 1486 1488 1489 1490 1491 1492 1493 1494 1495 1496 1497 1497 1498 1499 1500 1501 1502 1502 1503 1503 1504 1505 1506 1507 1507 1507 1508 1510 1511 1513 1514 1516 1517 1518 1518 1519 1519 1520 1521 1522 1523 1523 1524 1525 1525 1525 1525 1525 1526 1527 1527 1527 1527 1527 1527 1528 1528 1529 1529 1529 1530 1530 1530 1530 1531
1483 1483 1483 1483 1484 1486 1487 1488 1489 1490 1491 1492 1493 1494 1494 1495 1496 1497 1497 1498 1499 1500 1501 1502 1502 1503 1504 1504 1505 1506 1507 1508 1509 1510 1511 1512 1513 1514 1515 1516 1517 1518 1519 1520 1521 1522 1523 1523 1523 1523 1523 1525 1525 1525 1525 1525 1525 1525 1526 1526 1527 1527 1528 1528 1528 1529 1529 1529 1529
1482 1481 1481 1482 1482 1483 1485 1486 1487 1488 1488 1489 1491 1492 1493 1493 1493 1494 1495 1496 1497 1498 1499 1499 1500 1501 1502 1503 1503 1504 1505 1506 1507 1508 1508 1508 1509 1510 1512 1513 1514 1516 1517 1518 1519 1520 1520 1520 1520 1521 1522 1523 1524 1523 1523 1523 1523 1524 1524 1525 1526 1526 1526 1527 1527 1528 1528 1528 1528
1479 1479 1480 1480 1480 1481 1483 1484 1485 1486 1486 1487 1488 1489 1490 1491 1491 1492 1493 1493 1494 1495 1496 1497 1498 1499 1500 1501 1501 1502 1503 1505 1506 1506 1506 1506 1507 1507 1508 1510 1512 1513 1515 1516 1516 1516 1516 1517 1518 1519 1520 1522 1522 1522 1522 1522 1522 1523 1523 1524 1524 1524 1525 1525 1526 1526 1526 1526 1526
1477 1478 1478 1478 1479 1479 1481 1482 1483 1483 1484 1485 1486 1487 1488 1488 1489 1489 1490 1491 1492 1493 1494 1495 1496 1497 1498 1498 1499 1501 1502 1503 1504 1504 1504 1504 1504 1505 1506 1507 1509 1510 1511 1511 1511 1512 1513 1514 1515 1517 1518 1519 1520 1520 1520 1520 1520 1521 1522 1522 1523 1523 1523 1524 1524 1524 1525 1525 1525
1475 1476 1476 1477 1477 1478 1479 1480 1481 1482 1482 1483 1483 1484 1485 1486 1487 1487 1488 1488 1489 1491 1492 1493 1494 1495 1496 1497 1498 1499 1500 1501 1502 1502 1502 1502 1503 1503 1505 1506 1507 1507 1507 1508 1508 1509 1511 1513 1514 1515 1517 1517 1518 1518 1519 1519 1519 1519 1520 1520 1521 1522 1522 1522 1523 1523 1523 1523 1523
1473 1474 1474 1475 1475 1476 1477 1478 1479 1480 1480 1481 1482 1483 1483 1484 1485 1485 1486 1487 1488 1488 1490 1491 1492 1493 1494 1495 1496 1497 1498 1498 1499 1499 1500 1500 1501 1502 1503 1504 1504 1504 1505 1506 1507 1508 1510 1511 1513 1514 1515 1515 1516 1517 1517 1518 1518 1518 1518 1519 1519 1520 1520 1521 1521 1521 1522 1522 1522
1471 1472 1473 1473 1474 1475 1476 1476 1477 1478 1479 1479 1480 1481 1481 1482 1483 1483 1484 1484 1485 1487 1488 1489 1491 1492 1492 1493 1494 1495 1496 1497 1497 1498 1498 1499 1499 1500 1500 1501 1501 1503 1504 1505 1506 1507 1508 1509 1511 1512 1513 1513 1514 1514 1515 1516 1517 1517 1517 1518 1518 1518 1518 1519 1519 1520 1520 1520 1520
1470 1471 1472 1473 1473 1474 1474 1475 1476 1477 1478 1478 1478 1479 1480 1480 1481 1482 1482 1483 1484 1485 1487 1488 1489 1490 1491 1492 1493 1494 1494 1495 1496 1497 1497 1498 1498 1498 1498 1498 1499 1501 1503 1504 1505 1506 1507 1508 1509 1510 1510 1511 1512 1513 1513 1514 1515 1515 1516 1516 1516 1517 1517 1517 1518 1518 1518 1518 1519
1469 1470 1471 1472 1472 1473 1473 1474 1474 1475 1476 1477 1477 1478 1478 1479 1480 1480 1481 1482 1483 1484 1485 1486 1487 1488 1489 1490 1491 1492 1493 1493 1494 1495 1496 1496 1496 1496 1497 1497 1498 1500 1501 1502 1503 1504 1505 1507 1507 1508 1508 1509 1510 1511 1512 1513 1513 1514 1514 1515 1515 1515 1516 1516 1516 1516 1517 1517 1517
1468 1469 1470 1471 1471 1472 1473 1473 1473 1474 1475 1476 1476 1477 1477 1478 1478 1479 1480 1480 1481 1482 1483 1485 1486 1487 1488 1489 1489 1490 1491 1492 1493 1493 1494 1494 1494 1495 1495 1496 1498 1498 1499 1500 1501 1503 1503 1505 1506 1506 1507 1508 1508 1509 1510 1511 1511 1512 1513 1513 1514 1514 1514 1515 1515 1515 1515 1515 1515
1466 1468 1469 1470 1470 1471 1472 1472 1473 1473 1474 1474 1475 1475 1476 1477 1477 1478 1478 1479 1479 1481 1482 1483 1484 1486 1487 1488 1488 1489 1489 1490 1491 1491 1492 1492 1493 1493 1494 1495 1496 1497 1498 1498 1499 1501 1502 1503 1504 1505 1505 1506 1507 1508 1508 1509 1510 1510 1511 1512 1512 1513 1513 1513 1514 1514 1514 1514 1513
1465 1467 1468 1468 1469 1470 1471 1471 1471 1472 1472 1473 1473 1474 1475 1475 1476 1476 1476 1477 1478 1479 1480 1482 1483 1484 1485 1486 1487 1488 1488 1488 1489 1489 1490 1491 1491 1492 1493 1494 1494 1495 1496 1497 1498 1499 1500 1501 1502 1503 1504 1505 1505 1506 1507 1507 1508 1508 1509 1510 1510 1511 1512 1512 1512 1512 1513 1513 1513
1464 1465 1466 1467 1468 1469 1469 1470 1470 1470 1471 1472 1473 1473 1474 1474 1474 1474 1474 1475 1476 1478 1479 1480 1482 1483 1483 1484 1485 1486 1486 1487 1487 1488 1488 1489 1490 1491 1491 1492 1493 1493 1494 1495 1497 1498 1499 1500 1501 1502 1503 1503 1504 1504 1505 1506 1506 1507 1508 1508 1508 1509 1510 1510 1510 1510 1511 1511 1511
1463 1464 1465 1466 1467 1468 1468 1468 1468 1469 1469 1470 1471 1472 1472 1472 1472 1472 1473 1474 1475 1476 1478 1479 1480 1481 1482 1483 1483 1484 1484 1485 1486 1486 1487 1488 1488 1489 1489 1490 1491 1491 1493 1494 1496 1497 1498 1498 1499 1500 1501 1502 1502 1503 1503 1504 1505 1505 1506 1506 1507 1507 1508 1508 1508 1508 1508 1508 1509
1461 1463 1463 1465 1465 1466 1467 1467 1467 1467 1468 1469 1470 1470 1470 1470 1470 1471 1472 1473 1474 1475 1476 1477 1478 1479 1480 1481 1481 1482 1482 1483 1484 1484 1485 1486 1487 1487 1488 1488 1489 1490 1491 1493 1495 1496 1497 1497 1498 1498 1499 1500 1501 1502 1502 1503 1503 1504 1504 1505 1505 1505 1506 1506 1506 1506 1506 1506 1506
1460 1461 1462 1463 1463 1464 1465 1465 1465 1466 1467 1468 1468 1468 1468 1468 1468 1469 1470 1471 1473 1473 1474 1475 1476 1477 1478 1478 1479 1480 1481 1482 1482 1483 1484 1484 1485 1486 1486 1487 1488 1489 1490 1492 1494 1495 1495 1495 1496 1497 1498 1498 1499 1500 1501 1501 1502 1502 1503 1503 1503 1503 1504 1504 1504 1504 1504 1504 1504
1458 1459 1460 1460 1462 1463 1463 1463 1464 1465 1466 1466 1467 1467 1467 1467 1468 1468 1469 1470 1471 1472 1473 1474 1475 1475 1476 1477 1478 1479 1480 1480 1481 1481 1482 1483 1483 1484 1484 1485 1487 1488 1489 1491 1493 1493 1494 1494 1495 1495 1496 1497 1498 1498 1499 1499 1500 1500 1500 1501 1501 1502 1502 1502 1503 1503 1503 1503 1502
1457 1458 1458 1459 1461 1462 1462 1463 1464 1464 1465 1465 1465 1466 1466 1466 1467 1467 1468 1469 1470 1470 1471 1473 1473 1474 1474 1475 1476 1477 1478 1478 1479 1480 1480 1481 1482 1482 1483 1484 1485 1487 1488 1490 1491 1492 1492 1493 1493 1494 1495 1496 1496 1497 1498 1498 1498 1498 1499 1499 1499 1500 1500 1500 1501 1501 1501 1501 1501
1456 1457 1458 1459 1461 1462 1462 1463 1463 1464 1464 1465 1465 1465 1466 1466 1466 1467 1467 1468 1468 1469 1470 1471 1472 1472 1473 1474 1475 1476 1477 1477 1478 1478 1478 1479 1480 1481 1482 1483 1484 1486 1487 1488 1489 1490 1491 1491 1492 1493 1493 1494 1495 1496 1496 1496 1497 1497 1497 1498 1498 1498 1498 1498 1499 1499 1499 1499 1499
1456 1458 1459 1460 1461 1462 1463 1463 1464 1464 1464 1465 1465 1465 1466 1466 1466 1466 1466 1467 1467 1468 1468 1469 1470 1471 1471 1472 1473 1474 1475 1476 1476 1477 1477 1478 1479 1480 1481 1482 1483 1484 1486 1487 1488 1489 1489 1490 1491 1492 1492 1493 1494 1494 1495 1495 1495 1495 1496 1496 1496 1496 1497 1497 1497 1497 1497 1497 1496
1456 1458 1459 1460 1461 1462 1462 1463 1463 1464 1464 1464 1464 1465 1465 1466 1466 1466 1466 1466 1466 1467 1467 1468 1468 1469 1470 1471 1472 1473 1473 1474 1475 1475 1476 1477 1478 1479 1480 1481 1482 1483 1484 1485 1486 1487 1488 1489 1490 1490 1491 1492 1493 1493 1493 1493 1494 1494 1494 1494 1494 1494 1495 1495 1495 1495 1494 1494 1494
1456 1457 1458 1459 1460 1461 1461 1462 1462 1462 1462 1462 1463 1463 1464 1465 1465 1465 1465 1465 1466 1466 1467 1467 1468 1468 1469 1470 1471 1472 1472 1473 1474 1474 1475 1476 1477 1478 1479 1480 1481 1482 1483 1484 1485 1486 1487 1488 1488 1489 1490 1491 1491 1492 1492 1492 1492 1492 1492 1493 1493 1493 1493 1493 1493 1492 1492 1492 1491
1455 1456 1457 1458 1459 1459 1460 1460 1460 1460 1460 1460 1461 1461 1462 1463 1464 1464 1464 1465 1465 1465 1466 1466 1467 1468 1468 1469 1469 1470 1471 1472 1473 1473 1474 1475 1476 1477 1478 1479 1480 1481 1482 1483 1483 1484 1486 1487 1488 1488 1489 1490 1490 1490 1490 1490 1491 1491 1491 1491 1491 1491 1491 1491 1490 1490 1490 1489 1489
1454 1455 1456 1457 1457 1458 1458 1458 1459 1458 1458 1459 1459 1460 1461 1462 1463 1463 1463 1464 1464 1464 1465 1465 1466 1467 1467 1468 1468 1469 1470 1471 1472 1473 1473 1474 1475 1476 1477 1478 1479 1480 1481 1482 1483 1484 1484 1485 1486 1487 1488 1488 1488 1489 1489 1489 1489 1489 1489 1489 1489 1489 1489 1488 1488 1488 1488 1487 1487
1452 1453 1454 1455 1455 1456 1457 1457 1457 1457 1457 1457 1458 1459 1459 1460 1461 1462 1463 1463 1463 1463 1464 1464 1465 1466 1466 1467 1468 1468 1469 1470 1471 1472 1473 1473 1474 1475 1476 1478 1479 1480 1481 1482 1482 1483 1484 1484 1485 1486 1486 1487 1487 1487 1488 1488 1488 1488 1488 1487 1487 1487 1487 1487 1486 1486 1486 1485 1485
1449 1450 1451 1453 1454 1455 1455 1456 1456 1456 1456 1456 1457 1458 1458 1459 1460 1461 1461 1462 1462 1463 1463 1464 1464 1465 1466 1466 1467 1468 1469 1470 1471 1471 1472 1473 1474 1475 1476 1477 1478 1479 1480 1481 1482 1482 1483 1483 1484 1485 1485 1486 1486 1486 1486 1486 1486 1486 1486 1485 1485 1485 1485 1485 1484 1484 1483 1483 1483
1447 1448 1450 1451 1452 1453 1454 1454 1454 1455 1455 1455 1456 1457 1457 1458 1459 1459 1460 1460 1461 1462 1462 1463 1463 1464 1465 1466 1467 1468 1468 1469 1470 1471 1471 1472 1473 1474 1476 1477 1478 1479 1479 1480 1480 1481 1482 1482 1483 1483 1484 1484 1485 1485 1485 1485 1484 1484 1484 1483 1483 1483 1483 1483 1482 1482 1481 1481 1481
1447 1448 1449 1450 1451 1452 1453 1453 1453 1453 1454 1454 1455 1455 1456 1457 1458 1458 1459 1460 1460 1461 1462 1463 1463 1464 1464 1465 1466 1467 1468 1469 1469 1470 1471 1472 1473 1474 1475 1476 1477 1478 1478 1478 1479 1480 1480 1481 1482 1482 1483 1483 1483 1483 1483 1483 1483 1482 1482 1482 1482 1481 1481 1480 1480 1479 1479 1478 1478
Wind_Speed
32 33 33 33 34 35 35 35 34 33 32 30 29 28 28 29 29 29 29 29 29 29 29 29 30 30 31 32 33 34 34 33 32 30 28 26 25 24 23 23 23 22 21 21 20 19 17 15 13 11 10 8 7 6 5 4 4 5 6 7 7 7 8 9 11 13 14 15 15
32 33 33 33 34 35 35 35 35 35 34 32 31 30 29 29 29 29 28 28 28 29 29 28 28 29 29 31 32 33 34 35 34 32 29 27 26 25 24 24 23 23 22 22 21 20 18 16 14 12 10 9 7 7 6 5 4 5 6 8 8 9 9 11 12 13 15 15 15
33 34 34 34 34 35 36 36 36 36 35 34 32 31 30 29 29 28 28 28 28 29 28 28 27 27 28 29 30 32 34 35 35 33 31 29 27 26 25 24 24 23 23 22 21 20 18 17 15 13 11 9 8 7 6 5 5 5 7 8 9 10 11 12 13 14 15 15 16
33 34 35 35 36 36 36 36 36 36 36 35 34 32 31 30 29 29 29 29 29 29 28 27 26 26 27 28 29 31 33 34 35 34 32 30 28 26 25 25 24 24 23 23 21 20 18 17 15 13 11 10 8 8 7 6 5 5 6 8 9 11 12 13 14 14 15 15 15
34 35 36 36 37 37 37 37 37 37 36 36 35 33 32 30 30 30 30 31 30 29 27 26 25 26 27 28 29 30 31 33 34 34 33 31 29 27 26 25 25 24 24 23 22 20 19 17 16 14 12 10 9 8 7 6 6 6 7 8 10 12 13 14 14 14 15 15 15
34 35 37 37 37 37 37 37 37 37 36 36 36 35 33 32 31 32 32 33 32 30 28 26 26 27 28 29 28 28 29 31 33 34 33 32 30 27 26 25 25 25 25 24 23 21 19 18 16 14 13 11 9 8 7 7 7 8 9 9 11 12 13 14 15 15 15 15 15
34 35 37 38 38 37 37 37 36 36 36 37 37 36 35 34 33 33 34 34 33 31 29 27 27 29 30 29 27 25 26 28 31 33 34 32 30 28 26 26 26 26 26 25 23 21 20 18 17 15 13 11 9 8 8 9 9 10 10 10 11 12 14 15 15 15 15 15 15
33 35 37 38 38 37 37 37 36 36 36 37 37 37 36 36 35 35 35 34 33 32 30 29 30 31 31 29 26 24 25 26 30 33 35 33 31 28 27 26 26 26 27 26 24 22 21 19 17 16 14 12 10 9 10 11 11 10 10 10 11 12 14 15 15 15 15 16 16
32 34 36 37 37 37 36 36 36 36 36 36 36 37 37 37 36 36 36 35 34 33 31 31 32 33 32 30 26 24 24 25 29 33 35 34 32 29 28 27 27 27 27 27 26 24 21 19 18 16 15 13 11 11 12 12 11 10 10 11 12 13 14 15 15 15 16 16 16
31 32 34 36 36 36 35 35 35 35 35 35 35 36 37 37 37 37 36 36 35 33 33 33 33 33 32 29 26 24 23 23 28 32 34 34 33 31 29 28 28 28 28 28 27 25 22 20 18 16 15 13 13 13 13 12 10 10 10 11 12 14 15 16 16 16 16 17 17
31 32 34 35 36 35 35 35 35 34 34 33 34 35 36 37 37 37 37 36 35 35 35 35 34 33 31 29 26 23 22 22 26 31 33 34 33 31 30 29 29 29 28 28 27 25 23 21 19 17 15 15 15 15 13 11 10 10 10 12 13 15 16 17 17 17 17 17 18
32 33 34 35 35 35 34 34 34 33 33 33 33 34 35 36 37 38 38 38 37 37 36 36 35 33 31 28 25 23 21 22 25 29 32 33 32 31 30 30 29 29 28 28 27 26 24 21 20 18 18 18 17 15 13 11 10 10 10 11 13 15 17 18 18 18 18 18 18
32 33 34 35 35 35 34 34 33 33 32 32 32 33 34 35 36 38 39 39 39 38 37 36 35 33 30 28 25 23 23 23 26 29 31 31 32 32 32 31 30 29 28 28 27 26 24 22 22 21 20 18 17 15 13 12 11 10 10 11 13 15 17 18 19 19 18 18 19
32 33 34 35 35 35 34 33 33 32 32 31 32 33 34 35 36 37 39 40 40 39 38 36 35 33 31 28 26 25 24 25 27 29 30 31 32 33 33 32 31 29 28 28 27 26 25 24 23 21 19 17 16 15 15 14 12 10 10 11 13 15 16 17 18 19 19 20 20
33 33 34 35 35 35 34 33 33 32 32 32 32 32 33 34 35 37 38 40 40 39 38 37 36 34 32 29 27 25 25 27 28 30 31 32 33 34 34 33 31 29 28 28 27 27 27 26 23 20 17 16 16 17 16 15 13 11 11 12 13 14 15 16 18 19 20 20 21
33 33 33 34 34 35 34 33 33 32 32 32 32 32 33 33 34 36 38 39 40 40 39 38 37 35 32 29 27 26 26 28 29 31 31 33 34 35 35 34 32 30 30 30 30 31 30 27 23 19 18 17 17 18 17 16 14 13 12 13 13 14 15 16 17 19 20 21 21
33 33 33 33 33 33 33 33 32 32 32 32 32 32 32 32 33 35 36 39 40 41 40 39 37 35 33 30 27 27 28 29 31 32 33 34 35 35 35 34 32 32 33 34 35 34 31 27 22 20 19 19 18 18 18 17 16 15 14 14 14 14 15 16 17 18 20 21 22
33 33 33 32 32 32 32 32 32 31 32 32 32 32 31 32 32 33 35 37 39 41 41 39 37 35 33 30 29 28 29 31 32 34 34 35 35 35 34 33 33 35 36 37 36 33 29 24 22 21 21 20 19 18 18 17 17 17 16 16 15 15 15 16 17 18 19 20 21
34 33 33 32 32 32 31 31 31 31 31 31 31 31 31 31 31 32 34 36 37 38 39 39 37 34 32 30 29 30 31 33 35 36 36 36 35 34 34 34 35 36 36 36 33 29 25 23 23 23 22 20 19 18 18 18 18 18 18 17 17 17 17 17 17 18 19 20 21
33 33 33 32 32 31 31 31 31 31 30 30 29 29 29 30 31 32 33 34 34 35 36 37 36 34 32 30 30 31 34 36 37 37 37 36 36 36 36 36 37 36 35 33 29 26 24 24 25 24 22 20 19 18 18 18 18 19 19 19 19 18 18 18 18 18 19 20 20
32 32 32 32 31 31 31 31 31 30 29 28 28 28 29 29 30 31 32 32 32 32 33 34 34 33 32 31 31 33 36 37 38 37 37 37 37 37 38 38 37 36 33 30 26 25 25 25 25 24 22 20 18 17 17 17 18 19 19 20 20 20 20 19 19 20 20 20 21
31 31 31 31 31 31 31 31 30 29 29 28 28 28 28 28 29 30 30 30 30 31 31 32 32 32 32 32 33 35 37 38 38 38 37 37 38 38 38 37 36 34 31 27 26 27 27 26 25 23 21 19 18 17 17 17 17 18 19 20 20 20 20 20 21 21 21 21 21
30 30 30 30 30 30 30 30 30 29 28 28 28 28 28 28 28 29 30 30 30 30 31 31 32 32 32 33 34 36 38 39 39 39 38 38 38 38 37 36 34 31 29 28 28 29 28 27 24 22 21 19 19 18 18 17 17 17 18 19 19 20 20 20 20 21 21 22 22
29 29 29 29 30 30 30 30 30 29 29 29 29 28 28 28 28 29 30 31 31 31 30 31 31 32 33 34 35 36 38 40 40 40 40 39 38 37 35 33 31 29 29 30 30 30 28 26 23 22 21 20 20 20 19 19 18 18 18 18 19 19 19 19 20 20 21 22 22
28 28 28 29 29 29 29 30 30 30 29 29 28 28 28 28 29 30 31 31 31 31 31 31 32 33 34 35 36 37 38 40 40 41 40 39 37 35 33 31 30 30 31 31 31 29 27 24 22 22 22 22 22 21 21 20 19 19 19 19 19 19 19 19 19 20 20 21 22
27 28 28 28 28 28 29 30 31 31 30 29 28 27 28 29 31 32 32 32 31 31 31 31 33 34 36 37 37 38 38 39 39 40 39 38 35 33 31 31 31 32 32 32 30 28 25 22 21 22 22 23 22 22 21 21 20 20 20 20 20 20 20 20 21 21 21 21 22
26 27 27 26 26 27 28 29 31 31 30 28 27 27 28 30 32 32 32 32 31 31 31 32 33 35 36 37 38 38 39 39 38 38 37 36 33 32 31 32 33 33 32 31 29 25 22 20 21 22 24 24 23 22 21 21 20 20 20 21 21 21 21 22 22 22 22 22 22
25 25 25 24 25 25 26 28 30 30 29 28 27 28 29 31 32 33 33 32 31 31 31 32 34 35 36 38 38 39 39 38 37 36 35 33 32 32 33 33 33 33 32 30 27 23 21 19 21 24 25 25 24 23 22 21 21 21 21 21 21 22 22 22 22 22 23 23 23
23 23 23 24 24 24 25 27 28 28 29 29 29 29 30 31 32 32 32 32 31 31 31 32 33 34 36 37 38 38 38 37 36 35 33 31 31 32 34 34 34 33 32 29 25 22 19 19 22 25 26 26 25 24 23 22 22 22 22 22 22 22 21 21 21 21 21 22 23
23 23 23 24 24 24 25 26 27 27 28 29 30 30 30 30 30 30 30 30 30 30 31 31 32 33 34 35 36 36 36 36 35 33 32 31 31 33 34 34 34 33 31 28 24 20 19 19 22 25 27 27 26 24 23 23 23 23 23 22 22 21 20 19 18 19 20 20 21
23 23 23 24 24 24 24 25 25 26 27 29 29 29 29 28 27 27 28 28 28 29 29 30 30 31 32 33 34 35 35 35 34 33 31 31 31 33 34 34 34 33 30 26 22 19 18 20 22 25 27 27 26 24 23 23 22 22 22 22 21 20 19 18 18 19 19 20 21
22 22 22 22 22 22 22 22 23 24 25 26 27 27 26 25 25 25 26 26 26 27 27 28 29 29 30 31 32 33 33 32 32 31 30 30 31 32 33 33 33 32 29 26 22 19 18 19 22 24 25 26 25 24 23 22 22 22 21 21 20 20 19 19 19 20 20 21 22
20 20 20 19 19 19 19 20 20 21 23 24 25 25 24 23 23 24 24 24 25 26 26 27 28 28 29 30 30 30 30 30 30 29 29 29 30 31 32 32 32 30 28 25 22 19 18 19 21 23 24 24 24 23 22 22 22 22 22 21 21 21 20 20 20 20 21 22 23
18 18 18 18 18 18 19 20 21 22 23 24 24 24 24 23 23 23 23 24 25 25 26 26 27 28 28 28 28 28 28 28 27 27 27 28 29 30 31 31 30 29 27 25 22 20 18 18 20 21 23 23 23 22 22 22 22 22 22 22 22 21 21 21 21 22 22 23 24
16 17 17 18 18 18 19 20 22 23 24 25 25 25 24 23 23 23 23 24 25 25 25 26 26 26 26 26 26 25 25 25 26 26 26 27 28 29 30 30 29 27 26 25 23 21 19 19 19 21 22 22 22 22 22 22 22 22 22 22 22 22 22 22 22 23 24 24 25
14 15 16 17 18 19 20 21 22 23 24 25 25 25 24 24 23 23 23 24 24 25 25 25 25 25 24 24 24 23 23 24 24 25 25 26 28 29 29 29 28 26 25 24 23 22 21 20 20 21 21 22 22 22 22 22 22 22 21 22 22 22 22 23 23 24 24 25 25
10 13 15 17 19 20 20 20 21 22 24 25 25 24 24 24 24 23 23 23 24 24 24 24 24 24 23 23 23 22 22 22 23 25 25 26 27 28 29 28 27 25 24 23 23 22 22 22 21 22 22 23 23 23 22 22 21 21 21 22 22 22 23 23 23 24 24 25 25
15 17 18 19 20 20 20 20 21 22 22 23 23 23 23 23 23 23 23 23 23 24 24 23 23 23 23 22 22 21 21 22 23 25 26 27 27 28 28 27 26 24 23 22 22 22 22 22 22 23 23 24 24 23 23 22 22 21 22 22 22 22 22 23 23 23 24 25 25
19 19 20 20 20 20 20 20 21 21 21 22 22 22 21 21 22 22 22 23 23 23 22 22 22 22 22 22 21 21 21 22 23 25 26 27 27 27 26 26 24 22 21 21 21 21 21 22 22 23 24 24 24 24 23 22 22 22 22 22 22 22 22 23 23 24 25 26 26
19 20 20 20 20 20 20 20 21 21 21 21 21 20 20 20 20 21 21 21 22 21 21 21 21 21 21 21 21 21 21 21 23 24 26 26 26 26 25 24 23 21 20 20 20 20 20 21 22 23 23 24 24 23 23 22 22 22 22 22 22 23 24 24 25 25 26 27 27
19 20 21 21 20 20 19 19 20 21 21 20 19 19 19 19 19 19 20 20 20 20 20 19 20 20 21 21 21 21 21 21 22 23 24 24 24 24 24 23 22 20 19 19 19 19 20 20 21 22 23 23 23 23 23 22 22 22 22 23 24 24 25 26 27 27 28 28 28
Wind_Direction
210 214 216 215 212 210 212 215 217 218 218 218 217 214 210 207 207 209 213 217 220 223 225 225 225 226 226 226 225 224 222 220 220 220 221 222 224 224 220 213 209 206 204 205 206 206 207 207 208 211 215 221 226 232 239 249 260 267 270 268 263 258 251 244 239 238 238 241 247
210 215 219 219 217 216 216 216 217 218 219 220 220 218 214 210 208 210 215 219 223 225 225 224 224 225 226 227 228 226 225 223 223 222 222 223 224 224 220 213 209 207 207 208 208 208 208 208 209 212 216 220 223 228 235 244 256 264 264 262 259 255 251 246 244 243 244 247 251
209 215 219 220 220 219 218 218 219 219 219 220 220 219 218 215 214 216 219 222 225 225 223 221 223 225 227 229 230 229 227 226 225 224 223 223 224 223 219 212 209 209 210 211 211 210 209 210 212 214 217 220 223 227 234 242 256 263 263 259 257 254 251 248 247 246 247 249 251
208 214 218 221 222 222 222 222 222 221 220 219 218 217 217 218 219 222 224 224 223 222 221 221 223 227 230 231 231 231 230 229 227 226 224 223 223 221 217 212 210 210 212 214 213 212 211 211 213 215 217 219 222 228 235 247 260 270 268 262 257 252 250 249 248 248 248 249 251
207 213 218 222 224 225 225 225 224 223 221 219 216 215 215 216 217 219 221 221 220 219 221 222 225 229 231 231 231 231 232 231 229 227 225 223 222 220 217 213 212 213 215 216 215 214 212 212 213 214 216 218 221 228 239 253 268 277 277 269 258 251 249 249 249 249 250 251 252
205 212 218 223 225 226 226 225 225 224 222 220 217 215 214 214 214 215 217 219 221 223 225 226 227 229 229 229 229 232 235 235 233 229 226 222 221 219 217 215 214 215 216 217 217 215 214 213 213 214 215 216 220 228 241 257 271 280 279 270 257 250 248 248 248 249 250 250 250
205 211 217 222 225 225 225 225 226 226 224 222 220 218 217 216 215 216 218 221 224 226 228 229 228 227 226 226 230 238 244 242 238 232 227 223 221 219 218 216 215 216 217 218 217 216 215 214 214 214 214 216 220 229 243 259 272 278 277 268 257 250 247 247 248 249 249 248 247
204 211 218 222 225 226 227 227 228 227 226 225 223 223 222 221 220 220 221 223 225 227 229 230 228 227 226 227 238 251 255 247 238 231 227 223 221 220 218 217 216 216 217 218 218 218 216 215 215 215 215 218 224 236 250 264 273 276 272 264 256 251 248 247 247 247 247 247 246
203 210 218 223 227 228 229 229 230 230 230 229 227 226 226 225 224 224 224 224 226 228 229 229 229 229 229 232 244 256 257 247 234 228 226 224 222 221 219 218 217 217 218 219 219 218 217 215 215 216 218 222 233 248 261 270 271 269 264 259 253 250 249 248 246 245 246 246 245
201 208 216 223 227 230 230 230 231 232 232 232 230 229 228 228 227 227 227 227 228 228 228 229 231 231 231 235 244 255 257 245 232 226 225 224 223 222 220 218 217 217 217 218 219 218 217 215 214 215 220 230 244 258 267 270 264 258 257 256 252 248 247 248 246 245 244 245 245
201 207 215 222 227 230 231 230 231 232 233 232 231 229 229 230 230 230 230 230 228 228 229 232 233 232 233 237 242 250 251 241 229 224 223 224 223 222 220 218 217 216 216 218 219 218 217 214 212 215 225 240 253 261 264 260 252 250 253 255 252 247 245 245 246 245 243 243 244
201 206 213 221 226 229 230 229 230 232 233 232 230 229 229 230 231 231 231 230 229 230 231 233 234 234 235 237 239 241 241 235 226 222 222 223 223 221 220 218 216 215 215 217 219 218 216 214 215 223 236 249 255 256 253 247 243 245 251 254 251 246 243 242 243 244 244 243 243
200 204 211 218 224 227 228 228 229 231 232 232 230 228 227 228 230 231 231 231 231 232 232 233 234 235 237 238 236 234 231 227 222 221 222 224 225 223 219 217 215 213 214 217 219 219 217 218 225 236 246 252 252 248 242 238 240 245 251 252 250 246 242 240 240 241 242 242 241
199 202 209 215 221 224 225 225 227 229 232 231 229 226 225 226 228 229 231 232 233 232 232 233 234 236 238 237 234 229 225 220 217 218 221 225 226 223 218 215 213 212 213 216 218 218 220 227 236 245 249 248 244 239 237 236 241 247 252 252 250 247 245 241 239 239 239 240 241
198 201 206 213 218 221 223 223 225 228 230 231 229 226 224 224 225 228 230 231 232 231 231 232 234 236 237 235 231 226 220 215 213 215 218 220 220 217 214 212 211 210 211 213 216 220 227 236 244 247 245 238 233 231 233 237 242 248 251 252 252 250 248 244 240 237 237 238 240
197 199 202 208 214 218 220 221 223 226 229 231 229 226 224 223 225 227 228 229 229 230 230 231 234 235 234 231 227 222 216 211 210 211 213 213 212 211 210 210 210 210 212 216 221 228 236 243 245 242 234 228 224 223 227 234 241 246 250 253 253 252 249 246 242 238 237 237 239
196 198 200 204 210 215 218 220 221 224 227 230 229 228 225 224 225 226 226 227 227 228 229 231 234 235 234 230 224 217 211 208 208 208 209 209 209 209 210 213 217 220 223 227 231 236 240 244 240 233 227 224 220 218 221 227 235 243 248 251 252 252 250 247 243 240 238 237 238
196 197 199 202 207 211 215 218 219 221 224 227 228 228 226 224 224 225 226 226 226 228 229 231 233 234 233 229 222 214 209 207 207 208 209 209 211 213 218 225 231 233 233 234 236 238 240 238 232 228 225 222 217 215 216 221 228 237 244 247 250 251 251 248 245 241 239 238 239
196 197 199 201 205 210 213 216 218 219 221 224 225 226 226 225 225 225 226 227 228 229 230 231 232 233 232 228 221 213 208 207 208 209 211 212 216 220 227 234 237 238 236 236 236 237 235 231 228 226 225 220 214 212 214 218 224 231 238 243 248 250 251 249 247 243 241 240 240
197 197 199 201 204 208 211 214 215 217 219 220 222 223 225 225 225 225 227 229 230 231 232 232 231 231 229 225 218 210 207 208 209 211 213 216 219 223 229 233 235 235 235 234 233 230 227 225 226 227 226 220 213 211 212 217 221 227 232 238 243 246 248 248 247 245 243 243 243
198 199 200 201 203 206 209 211 213 214 215 216 219 221 222 223 223 225 228 232 233 233 232 231 230 228 226 221 214 208 207 208 209 211 214 216 219 223 227 230 231 232 232 231 226 221 219 221 225 227 226 221 216 213 215 217 221 225 229 233 238 242 244 246 246 246 245 246 246
200 201 202 203 204 205 206 209 211 212 213 214 215 216 218 220 222 225 229 233 234 233 231 229 228 226 223 219 213 209 208 209 210 212 214 216 219 223 226 229 230 230 229 225 218 215 216 220 225 227 226 222 219 218 219 221 223 225 228 231 235 238 242 244 245 246 246 247 248
201 203 204 204 205 205 205 207 209 210 211 211 211 212 213 216 220 224 228 231 232 232 230 228 225 224 222 219 215 212 211 211 212 212 214 216 219 223 226 228 229 228 225 219 215 214 216 220 224 225 223 221 221 221 222 223 225 226 228 231 234 237 240 243 245 246 247 250 251
202 204 204 204 204 204 204 205 207 208 207 207 208 209 211 214 218 222 225 227 229 229 228 226 223 221 220 218 215 214 213 213 213 213 215 217 220 223 226 227 227 224 220 217 216 217 220 222 222 220 218 219 220 221 222 223 225 227 228 230 233 235 239 242 244 247 249 251 253
204 205 205 204 203 203 204 204 205 205 204 204 206 208 211 214 217 220 222 225 227 227 226 224 221 219 217 215 214 214 214 215 215 216 217 219 222 224 225 224 222 220 218 218 219 222 224 226 222 218 215 215 217 219 221 223 225 226 228 230 232 234 237 240 243 246 250 252 255
204 204 204 204 203 203 203 203 204 203 202 202 204 207 209 212 215 218 221 223 225 226 224 222 219 216 214 213 213 213 214 216 218 220 221 222 223 223 222 220 218 218 219 220 222 225 227 227 222 217 213 212 214 216 219 222 225 227 229 231 232 235 237 241 245 248 251 253 256
202 202 203 203 203 203 203 202 202 202 202 202 204 206 208 210 213 217 220 222 224 223 222 219 217 216 215 215 214 215 217 219 222 224 225 225 223 220 218 217 218 219 220 221 223 227 230 227 221 216 213 211 212 214 217 221 225 228 230 232 234 236 239 244 248 252 255 257 259
199 199 200 201 202 202 202 201 201 201 201 202 203 204 206 209 212 216 219 221 222 221 220 218 218 218 218 218 218 219 221 223 226 227 228 226 222 218 216 217 219 221 222 222 226 231 232 227 219 214 212 211 212 214 217 220 223 227 230 232 234 237 242 246 252 256 259 261 263
194 194 196 197 197 197 197 198 198 200 201 201 202 203 205 208 212 216 218 220 221 221 220 220 220 221 222 222 222 223 224 226 229 230 229 224 219 217 217 219 221 222 223 224 228 232 233 225 216 212 212 213 215 216 218 219 222 224 227 230 234 238 244 250 254 258 260 262 265
189 190 192 193 192 191 192 195 197 199 200 201 201 203 206 208 212 215 218 220 221 223 225 225 224 224 224 225 225 225 226 228 231 231 229 223 219 217 219 221 222 223 224 226 230 232 229 221 215 213 214 216 218 220 221 222 223 225 227 230 235 240 247 254 259 261 262 264 266
185 187 190 192 191 191 192 194 196 198 200 201 202 204 207 208 212 216 220 222 225 227 229 229 227 226 227 227 227 227 228 230 232 232 229 224 220 219 221 222 223 224 225 227 229 229 225 220 216 215 216 218 221 223 224 225 227 229 232 235 240 246 251 257 262 264 266 269 270
186 188 191 193 194 194 195 196 198 200 203 204 204 206 208 210 214 219 223 225 226 227 227 226 225 225 226 227 228 229 230 230 231 232 230 226 222 221 221 222 223 224 226 228 227 225 222 220 219 218 219 221 223 225 226 228 231 234 238 242 247 252 257 262 266 270 273 275 277
192 194 196 198 197 199 200 202 203 206 208 208 208 209 210 211 215 219 221 222 221 221 221 222 222 222 224 226 228 230 231 231 231 231 230 226 222 221 221 222 222 224 226 227 225 223 223 223 222 222 222 222 224 225 227 230 234 238 242 246 251 257 262 268 272 276 280 282 283
200 202 203 204 203 204 206 208 209 210 211 211 211 211 211 210 211 212 213 214 214 216 218 220 221 223 226 229 231 232 232 231 230 228 226 224 221 220 220 221 222 223 225 225 224 224 225 226 225 224 223 222 223 225 228 231 235 239 243 248 253 259 266 272 277 281 284 286 287
208 209 209 208 208 208 208 209 209 210 212 212 213 212 211 208 207 207 208 209 210 212 215 218 221 224 228 232 234 233 231 228 225 223 221 220 219 218 219 221 222 222 223 223 224 225 227 228 227 225 223 221 222 224 228 233 237 241 245 250 256 262 268 275 280 284 287 288 289
212 214 214 211 208 207 206 206 207 209 211 213 213 212 209 206 205 205 206 207 209 211 213 216 219 222 224 227 229 230 228 224 220 217 216 216 216 217 219 221 222 221 220 221 223 226 229 230 229 226 223 222 222 226 230 235 240 244 249 254 259 266 273 279 283 286 288 289 290
231 227 220 213 206 203 203 203 204 207 209 212 212 211 208 205 204 204 205 207 209 210 213 215 217 218 219 221 223 224 223 220 216 214 213 214 215 217 219 221 221 219 219 220 223 226 229 231 231 229 225 224 225 228 233 239 244 249 254 260 266 272 278 283 286 288 289 289 289
247 230 215 206 201 199 199 200 202 204 206 209 210 210 208 205 203 203 204 206 208 210 212 214 214 215 216 217 219 220 219 216 213 212 212 213 215 217 219 220 219 218 218 220 223 226 229 231 231 230 228 227 228 231 237 243 249 255 260 266 273 278 282 284 285 286 286 286 286
227 215 204 198 196 196 196 198 200 202 204 206 208 208 207 205 203 202 203 205 207 209 210 211 212 212 213 213 215 215 214 212 211 212 214 215 216 218 219 219 217 217 219 222 224 227 229 230 231 230 229 229 231 236 241 247 254 260 266 271 277 280 282 282 283 284 285 285 285
204 200 198 196 195 194 194 196 198 201 203 205 205 205 204 203 202 202 202 204 206 208 209 209 210 210 210 211 211 212 211 210 211 213 216 217 218 219 219 218 216 217 220 224 226 227 228 229 229 229 230 231 235 239 245 251 257 263 268 274 277 280 282 283 284 285 286 287 287
194 196 197 196 195 193 193 193 196 200 202 203 203 202 203 202 201 200 200 201 203 204 205 206 206 207 208 209 209 209 209 209 210 214 217 219 219 218 217 215 213 215 220 223 225 226 227 227 228 229 231 234 238 243 249 254 260 265 270 274 278 281 284 286 287 288 288 289 288